Location: Allie Creek
(37.5926°N, 89.8526°W)
Time: 14:18:28
(UTC+00:00)

Meteor 1-27 Rocket - Pass Details

Date: 23 April 2024
Orbit: 829 x 909 km, 81.3° (Epoch: 26 May)

Event Time Altitude Azimuth Distance (km) Brightness Sun altitude
Exits shadow 07:08:28 30° 52° (NE) 1,490 5.3 -37.0°
Drops below altitude 10° 07:11:47 10° 25° (NNE) 2,489 6.9 -36.8°
Sets 07:14:19 0° 18° (NNE) 3,418 7.8 -36.6°
